KA8UPW-1 Weather Reports


Display with metric or nautical units.
time (UTC)temp
F
wind
direction
speed
MPH
gust
MPH
rain 1hr
in
rain 24hr
in
rain mn
in
humidity
%
barometer
mb
20260506234503 51 0 0.0 0.0 0.00 0.71 0.29 60 1011.0
20260506233603 51 0 0.0 0.0 0.00 0.71 0.29 60 1011.1
20260506232703 52 0 0.0 0.0 0.00 0.71 0.29 59 1011.2
20260506232020 52 0 0.0 0.0 0.00 0.72 0.29 59 1011.3
20260506230903 52 0 0.0 0.0 0.00 0.73 0.29 59 1011.3
20260506230003 52 0 0.0 0.0 0.00 0.75 0.29 58 1011.3
20260506225403 52 0 0.0 0.0 0.00 0.76 0.29 59 1011.1
20260506224504 52 0 0.0 0.0 0.00 0.77 0.29 60 1011.0
20260506223603 52 0 0.0 0.0 0.00 0.78 0.29 59 1010.9
20260506222918 52 0 0.0 0.0 0.00 0.79 0.29 58 1011.0
20260506221804 53 0 0.0 0.0 0.00 0.81 0.29 57 1011.1
20260506220903 53 0 0.0 0.0 0.00 0.81 0.29 57 1011.1
20260506220004 53 0 0.0 0.0 0.00 0.82 0.29 58 1010.8
20260506215403 53 0 0.0 0.0 0.00 0.83 0.29 57 1010.7
20260506214504 53 0 0.0 0.0 0.00 0.85 0.29 56 1010.7
20260506213603 53 0 0.0 0.0 0.00 0.90 0.29 55 1010.7
20260506212704 54 0 0.0 0.0 0.00 0.92 0.29 55 1010.6
20260506212021 54 0 0.0 0.0 0.00 0.92 0.29 56 1010.5
20260506210903 54 0 0.0 0.0 0.00 0.93 0.29 54 1010.4
20260506210005 54 0 0.0 0.0 0.00 0.93 0.29 55 1010.3
20260506205403 54 0 0.0 0.0 0.00 0.93 0.29 55 1010.2
20260506204720 54 0 0.0 0.0 0.00 0.93 0.29 56 1010.2
20260506203604 54 0 0.0 0.0 0.00 0.93 0.29 56 1010.0
20260506202703 54 0 0.0 0.0 0.00 0.94 0.29 53 1010.4
20260506201803 54 0 0.0 0.0 0.00 0.96 0.29 54 1010.4
20260506200903 54 0 0.0 0.0 0.00 0.96 0.29 57 1010.5
20260506200004 54 0 0.0 0.0 0.00 0.96 0.29 53 1010.4
20260506195405 54 0 0.0 0.0 0.00 0.96 0.29 55 1010.3
20260506194504 54 0 0.0 0.0 0.00 0.96 0.29 56 1010.3
20260506193604 54 0 0.0 0.0 0.00 0.96 0.29 53 1010.1
20260506192703 54 0 0.0 0.0 0.00 0.97 0.29 56 1010.3
20260506191804 54 0 0.0 0.0 0.00 0.98 0.29 57 1010.4
20260506191120 54 0 0.0 0.0 0.00 0.98 0.29 57 1010.3
20260506190004 55 0 0.0 0.0 0.00 0.98 0.29 55 1010.1
20260506185404 54 0 0.0 0.0 0.00 0.98 0.29 57 1010.1
20260506184503 54 0 0.0 0.0 0.00 0.98 0.29 55 1010.4
20260506183604 55 0 0.0 0.0 0.00 0.98 0.29 55 1010.4
20260506182703 55 0 0.0 0.0 0.00 0.98 0.29 55 1010.4
20260506181803 56 0 0.0 0.0 0.00 0.98 0.29 52 1010.2
20260506180903 56 0 0.0 0.0 0.00 0.98 0.29 55 1010.2
20260506180005 56 0 0.0 0.0 0.00 0.98 0.29 55 1010.1
20260506175403 56 0 0.0 0.0 0.00 0.98 0.29 57 1010.2
20260506174716 56 0 0.0 0.0 0.00 0.98 0.29 57 1010.1
20260506173819 56 0 0.0 0.0 0.00 0.98 0.29 57 1010.3
20260506172704 57 0 0.0 0.0 0.00 0.98 0.29 57 1010.3
20260506171803 57 0 0.0 0.0 0.00 0.98 0.29 58 1009.9
20260506170903 58 0 0.0 0.0 0.00 0.98 0.29 57 1010.1
20260506170005 57 0 0.0 0.0 0.00 0.98 0.29 60 1009.9
20260506165625 56 0 0.0 0.0 0.00 0.98 0.29 59 1009.9
20260506164504 56 0 0.0 0.0 0.00 0.98 0.29 59 1010.0
20260506163603 55 0 0.0 0.0 0.00 0.98 0.29 61 1010.3
20260506162703 56 0 0.0 0.0 0.00 0.98 0.29 63 1010.4
20260506161803 54 0 0.0 0.0 0.00 0.98 0.29 67 1010.3
20260506161116 54 0 0.0 0.0 0.00 0.98 0.29 65 1010.2
20260506160219 54 0 0.0 0.0 0.00 0.98 0.29 65 1010.0
20260506155403 54 0 0.0 0.0 0.00 0.98 0.29 67 1009.9
20260506154505 53 0 0.0 0.0 0.00 0.98 0.29 71 1009.8
20260506153603 52 0 0.0 0.0 0.00 0.98 0.29 74 1009.7
20260506152923 52 0 0.0 0.0 0.00 0.98 0.29 71 1009.8
20260506151804 53 0 0.0 0.0 0.00 0.98 0.29 73 1009.6
20260506150904 52 0 0.0 0.0 0.00 0.98 0.29 76 1009.6
20260506150003 52 0 0.0 0.0 0.00 0.98 0.29 75 1009.7
20260506145403 51 0 0.0 0.0 0.00 0.98 0.29 75 1009.5
20260506144503 50 0 0.0 0.0 0.00 0.98 0.29 76 1009.3
20260506143603 50 0 0.0 0.0 0.00 0.98 0.29 79 1009.2
20260506142703 49 0 0.0 0.0 0.00 0.98 0.29 80 1008.9
20260506141803 48 0 0.0 0.0 0.00 0.98 0.29 82 1008.9
20260506141118 48 0 0.0 0.0 0.00 0.98 0.29 82 1009.0
20260506140220 47 0 0.0 0.0 0.00 0.98 0.29 83 1008.9
20260506135404 47 0 0.0 0.0 0.00 0.98 0.29 84 1009.2
20260506134503 46 0 0.0 0.0 0.00 0.98 0.29 86 1009.0
20260506133603 46 0 0.0 0.0 0.00 0.98 0.29 89 1009.0
20260506132919 45 0 0.0 0.0 0.00 0.98 0.29 90 1008.9
20260506131803 44 0 0.0 0.0 0.00 0.98 0.29 92 1008.8
20260506130903 44 0 0.0 0.0 0.00 0.98 0.29 93 1008.7
20260506130008 44 0 0.0 0.0 0.00 0.98 0.29 94 1008.6
20260506125403 44 0 0.0 0.0 0.00 0.98 0.29 94 1008.5
20260506124503 43 0 0.0 0.0 0.00 0.98 0.29 94 1008.2
20260506123603 43 0 0.0 0.0 0.01 0.98 0.29 94 1008.2
20260506122703 43 0 0.0 0.0 0.01 0.98 0.29 95 1008.3
20260506121804 43 0 0.0 0.0 0.01 0.98 0.29 95 1007.8
20260506120903 43 0 0.0 0.0 0.01 0.98 0.29 95 1007.8
20260506120222 43 0 0.0 0.0 0.01 0.98 0.29 95 1007.6
20260506115404 43 0 0.0 0.0 0.01 0.98 0.29 95 1007.5
20260506114504 43 0 0.0 0.0 0.01 0.98 0.29 95 1007.4
20260506113603 44 0 0.0 0.0 0.00 0.97 0.28 95 1007.2
20260506112703 44 0 0.0 0.0 0.00 0.97 0.28 95 1007.3
20260506111803 44 0 0.0 0.0 0.00 0.97 0.28 95 1007.3
20260506110904 44 0 0.0 0.0 0.00 0.97 0.28 95 1007.4
20260506110222 44 0 0.0 0.0 0.00 0.97 0.28 95 1007.5
20260506105404 44 0 0.0 0.0 0.00 0.97 0.28 95 1006.7
20260506104504 44 0 0.0 0.0 0.00 0.97 0.28 95 1006.4
20260506103603 44 0 0.0 0.0 0.00 0.97 0.28 95 1006.7
20260506102703 44 0 0.0 0.0 0.00 0.97 0.28 95 1006.8
20260506101803 44 0 0.0 0.0 0.00 0.97 0.28 95 1006.3
20260506100903 44 0 0.0 0.0 0.00 0.98 0.28 95 1006.4
20260506100005 44 0 0.0 0.0 0.00 0.99 0.28 95 1006.2
20260506095403 44 0 0.0 0.0 0.00 0.99 0.28 95 1006.6
20260506094504 44 0 0.0 0.0 0.01 0.99 0.28 95 1005.9
20260506093604 44 0 0.0 0.0 0.01 0.99 0.28 95 1005.2
20260506092921 44 0 0.0 0.0 0.01 0.99 0.28 95 1005.2
20260506091804 44 0 0.0 0.0 0.02 0.99 0.28 95 1005.5
20260506090904 44 0 0.0 0.0 0.02 0.99 0.28 95 1005.8
20260506090005 44 0 0.0 0.0 0.02 0.99 0.28 95 1006.4
20260506085404 44 0 0.0 0.0 0.02 0.99 0.28 95 1006.5
20260506084503 45 0 0.0 0.0 0.02 0.98 0.27 95 1006.4
20260506083603 45 0 0.0 0.0 0.03 0.98 0.27 96 1006.4
20260506082703 45 0 0.0 0.0 0.03 0.98 0.27 96 1006.2
20260506081803 44 0 0.0 0.0 0.03 0.97 0.26 96 1006.2
20260506080904 44 0 0.0 0.0 0.04 0.97 0.26 95 1006.0
20260506080219 44 0 0.0 0.0 0.05 0.97 0.26 95 1005.9
20260506072703 44 0 0.0 0.0 0.08 0.95 0.24 95 1006.4
20260506071803 45 0 0.0 0.0 0.08 0.94 0.23 95 1006.2
20260506070904 45 0 0.0 0.0 0.09 0.93 0.22 95 1006.1
20260506061803 45 0 0.0 0.0 0.07 0.87 0.15 95 1005.9
20260506061118 46 0 0.0 0.0 0.07 0.86 0.14 95 1005.9
20260506050903 46 0 0.0 0.0 0.07 0.79 0.07 95 1006.3
20260506044503 46 0 0.0 0.0 0.06 0.77 0.05 95 1006.2
20260506043603 46 0 0.0 0.0 0.05 0.75 0.03 95 1006.1
20260506042704 46 0 0.0 0.0 0.06 0.75 0.03 95 1005.9
20260506041804 46 0 0.0 0.0 0.06 0.73 0.01 95 1005.9
20260506040903 46 0 0.0 0.0 0.06 0.72 0.00 95 1005.9
20260506040004 46 0 0.0 0.0 0.07 0.72 0.00 95 1005.9
20260506035403 46 0 0.0 0.0 0.07 0.71 0.71 95 1006.1
20260506034503 47 0 0.0 0.0 0.08 0.71 0.71 95 1006.2
20260506033603 47 0 0.0 0.0 0.08 0.70 0.70 95 1006.5
20260506032703 47 0 0.0 0.0 0.08 0.69 0.69 95 1006.6
20260506031805 47 0 0.0 0.0 0.08 0.67 0.67 95 1006.8
20260506030903 47 0 0.0 0.0 0.08 0.66 0.66 95 1006.9
20260506030222 48 0 0.0 0.0 0.09 0.65 0.65 95 1007.1
20260506025619 48 0 0.0 0.0 0.10 0.65 0.65 95 1007.1
20260506024503 48 0 0.0 0.0 0.10 0.63 0.63 95 1007.3
20260506023604 48 0 0.0 0.0 0.11 0.62 0.62 95 1007.3
20260506022703 48 0 0.0 0.0 0.10 0.61 0.61 95 1007.3
20260506021803 48 0 0.0 0.0 0.10 0.59 0.59 95 1007.2
20260506020904 48 0 0.0 0.0 0.10 0.58 0.58 95 1007.1
20260506020003 48 0 0.0 0.0 0.10 0.56 0.56 95 1006.9
20260506015404 49 0 0.0 0.0 0.10 0.54 0.54 95 1006.8
20260506014504 49 0 0.0 0.0 0.12 0.53 0.53 94 1006.6
20260506013819 49 0 0.0 0.0 0.13 0.52 0.52 95 1006.4
20260506012703 49 0 0.0 0.0 0.15 0.51 0.51 95 1006.3
20260506011803 49 0 0.0 0.0 0.16 0.49 0.49 95 1006.3
20260506010903 49 0 0.0 0.0 0.17 0.48 0.48 94 1006.2
20260506010218 49 0 0.0 0.0 0.16 0.46 0.47 94 1006.1
20260506005404 49 0 0.0 0.0 0.14 0.44 0.44 94 1006.2
20260506004504 50 0 0.0 0.0 0.11 0.41 0.41 94 1006.2
20260506003603 50 0 0.0 0.0 0.09 0.39 0.39 94 1006.1
20260506002703 50 0 0.0 0.0 0.06 0.36 0.36 94 1006.0
20260506001804 51 0 0.0 0.0 0.04 0.33 0.33 94 1005.9
20260506000903 52 0 0.0 0.0 0.03 0.31 0.31 94 1005.6
20260506000226 52 0 0.0 0.0 0.03 0.30 0.30 93 1005.6
20260505235403 53 0 0.0 0.0 0.05 0.30 0.30 94 1005.4